Flag for United Arab Emirates Weather past 2 weeks in Ras al-Khaimah, Ras al-Khaimah, United Arab Emirates

Now
88 °F

Sunny.


Feels Like: 96 °F
Forecast: 85 / 107 °F
Wind: 10 mph from South

Location: Ras Al Khaimah International Airport

Current Time: Jul 30, 2014 at 7:15:01 AM

Latest Report: Jul 30, 2014 at 6:00 AM


Visibility: 10 mi

Pressure: 29.45 "Hg

Humidity: 62%

Dew point: 73 °F

Location of Ras al-KhaimahLocation

Historic Weather in Ras al-Khaimah — Graph

°F

Ras al-Khaimah temperature yesterday

Maximum temperature yesterday: 111 °F (at 2:00 PM)
Minimum temperature yesterday: 90 °F (at 3:00 AM)
Average temperature yesterday: 97 °F

Past Weeks' High & Low Weather Summary

 TemperatureHumidityPressure
High113 °F (Jul 26, 3:00 PM)84% (Jul 16, 4:00 AM)29.56 "Hg (Jul 16, 4:00 AM)
Low84 °F (Jul 21, 4:00 AM)11% (Jul 25, 12:00 PM)29.33 "Hg (Jul 17, 5:00 PM)
Average97 °F50%29.43 "Hg
* Reported Jul 15 6:00 AM — Jul 30 6:00 AM, Ras al-Khaimah, Weather by CustomWeather, © 2014

Note: Actual official high and low records may vary slightly from our data, if they occured in-between our weather recording intervals... More about our weather records

Advertising

Ras al-Khaimah weather history for previous 24 hours

 ConditionsComfort  
Time TempWeatherWind HumidityBarometerVisibility
6:00 AM
Jul 30
88 °FSunny.10 mph62%29.45 "Hg10 mi
5:00 AM88 °FClear.9 mph62%29.45 "Hg10 mi
4:00 AM88 °FClear.7 mph66%29.42 "Hg10 mi
3:00 AM99 °FClear.7 mph47%29.42 "Hg10 mi
2:00 AM90 °FClear.7 mph67%29.42 "Hg10 mi
1:00 AM91 °FClear.8 mph67%29.45 "Hg10 mi
12:00 AM91 °FClear.7 mph67%29.45 "Hg10 mi
10:00 PM
Jul 29
93 °FClear.7 mph63%29.45 "Hg10 mi
9:00 PM93 °FClear.9 mph67%29.42 "Hg5 mi
8:00 PM93 °FClear.8 mph67%29.42 "Hg4 mi
7:00 PM95 °FClear.13 mph63%29.39 "Hg4 mi
5:00 PM100 °FClear.12 mph53%29.36 "Hg4 mi
4:00 PM102 °FClear.18 mph48%29.36 "Hg4 mi
3:00 PM108 °FDuststorm.9 mph38%29.36 "Hg3 mi
2:00 PM111 °FSunny.8 mph20%29.36 "Hg10 mi
1:00 PM108 °FSunny.10 mph25%29.39 "Hg10 mi
12:00 PM106 °FSunny.10 mph26%29.39 "Hg10 mi
11:00 AM104 °FSunny.13 mph31%29.42 "Hg10 mi
10:00 AM100 °FSunny.15 mph40%29.42 "Hg10 mi
9:00 AM97 °FSunny.13 mph50%29.42 "Hg10 mi
8:00 AM93 °FSunny.15 mph59%29.42 "Hg10 mi
7:00 AM90 °FSunny.15 mph71%29.42 "Hg10 mi
Weather by CustomWeather, © 2014

See weather overviewHow to use our weather pages